Location: Balmoral
(33.0667°S, 151.5833°E)
Time: 16:21:07
(UTC+00:00)

Cosmos 2297 Rocket - Pass Details

Date: 18 September 2020
Orbit: 838 x 845 km, 71.0° (Epoch: 25 October)

Event Time Altitude Azimuth Distance (km) Brightness Sun altitude
Exits shadow 18:03:26 - 354° (N) 2,676 4.6 -22.4°
Reaches altitude 10° 18:04:01 10° 355° (N) 2,459 4.4 -22.3°
Maximum altitude 18:09:33 59° 73° (ENE) 974 2.7 -21.2°
Drops below altitude 10° 18:15:09 10° 151° (SSE) 2,484 5.2 -20.0°
Sets 18:17:39 0° 154° (SSE) 3,425 5.9 -19.5°
